Orbital Elements at Epoch 2459000.5 (2020-May-31.0) TDB
Reference: JPL 14 (heliocentric ecliptic J2000)
Element | Value | Uncertainty (1-sigma) | Units |
e | .1114901252687864 | 5.0495e-08 | |
a | 2.67201957427965 | 2.1386e-08 | au |
q | 2.374115777222563 | 1.3878e-07 | au |
i | 3.432862890776088 | 5.0323e-06 | deg |
node | 120.8277331384973 | 9.6684e-05 | deg |
peri | 254.3874144360607 | 9.9839e-05 | deg |
M | 249.8873799242491 | 2.6675e-05 | deg |
tp | 2459488.469272916059 (2021-Sep-30.96927292) | 0.00011981 | TDB |
period | 1595.356991132637 4.37 | 1.9153e-05 5.244e-08 | d yr |
n | .2256548233410849 | 2.7091e-09 | deg/d |
Q | 2.969923371336738 | 2.3771e-08 | au |
|
| | Orbit Determination Parameters
Additional Information
|